Location: Deurze
(52.9838°N, 6.6090°E)
Time: 19:48:23
(UTC+00:00)

NOSS 3-2 (A) - Pass Details

Date: 11 March 2026
Orbit: 669 x 1534 km, 63.4° (Epoch: 2 January)

Event Time Altitude Azimuth Distance (km) Brightness Sun altitude
Rises 19:35:44 0° 236° (WSW) 3,147 6.7 -19.3°
Reaches altitude 10° 19:37:56 10° 240° (WSW) 2,298 6.0 -19.6°
Maximum altitude 19:43:10 68° 323° (NW) 932 3.5 -20.4°
Drops below altitude 10° 19:49:37 10° 47° (NE) 2,814 5.7 -21.3°
Enters shadow 19:52:17 - 50° (NE) 3,812 6.4 -21.6°
